Weather History for Meadow Lake, CO

Change the Weather History Date:

Saturday, September 1, 2012

  Actual Average (KCOS) Record (KCOS)
Temperature  
Mean Temperature 69 °F 66 °F  
Max Temperature 89 °F 79 °F 94 °F (1995)
Min Temperature 50 °F 53 °F 30 °F (1911)
Degree Days  
Heating Degree Days 0 2  
Month to date heating degree days 2  
Since 1 July heating degree days 33  
Cooling Degree Days 4 3  
Month to date cooling degree days 3  
Year to date cooling degree days 421  
Growing Degree Days 19 (Base 50)    
Moisture  
Dew Point 33 °F    
Average Humidity 28    
Maximum Humidity 53    
Minimum Humidity 13    
Precipitation  
Precipitation 0.00 in 0.07 in 1.42 in (1901)
Month to date precipitation 0.07  
Year to date precipitation 13.86  
Snow  
Snow 0.00 in 0.00 in 0.00 in (2002)
Month to date snowfall 0.0  
Since 1 July snowfall 0.0  
Since 1 September snowfall 0.0  
Snow Depth -    
Sea Level Pressure  
Sea Level Pressure 30.26 in    
Wind  
Wind Speed 6 mph (South)    
Max Wind Speed 16 mph    
Max Gust Speed 24 mph    
Visibility 10 miles    
Events      
T = Trace of Precipitation, MM = Missing Value Source: NWS Daily Summary

Daily Weather History Graph

Daily Weather History Graph

Search for Another Location

Airport:

Trip Planner

Search our weather history database for the weather conditions in past years. The results will help you decide how hot, cold, wet, or windy it might be!

Date:

Astronomy

Sep. 01, 2012 Rise Set
Actual Time 6:27 AM MDT 7:27 PM MDT
Civil Twilight 6:00 AM MDT 7:55 PM MDT
Nautical Twilight 5:27 AM MDT 8:27 PM MDT
Astronomical Twilight 4:54 AM MDT 9:01 PM MDT
Moon 7:47 PM MDT (9/1) 7:36 AM MDT (9/1)
Length of Visible Light 13h 54m
Length of Day
13h 00m
Full, 98% of the Moon is Illuminated
Sep 1
Full
Sep 8
Last Quarter
Sep 15
New
Sep 22
First Quarter
Sep 29
Full

Hourly Weather History & Observations

Time (MDT) Temp. Dew Point Humidity Pressure Visibility Wind Dir Wind Speed Gust Speed Precip Events Conditions
12:13 AM 59.7 °F 30.2 °F 33% 30.31 in 10.0 mi SE 6.9 mph - N/A   Clear
12:33 AM 58.8 °F 30.9 °F 35% 30.31 in 10.0 mi SSE 3.5 mph - N/A   Clear
12:53 AM 58.6 °F 31.1 °F 35% 30.31 in 10.0 mi SSE 4.6 mph - N/A   Clear
1:13 AM 58.5 °F 31.5 °F 36% 30.31 in 10.0 mi SSE 6.9 mph - N/A   Clear
1:33 AM 58.3 °F 31.5 °F 36% 30.31 in 10.0 mi SSE 3.5 mph - N/A   Clear
1:53 AM 58.3 °F 31.8 °F 37% 30.31 in 10.0 mi SE 4.6 mph - N/A   Clear
2:13 AM 58.1 °F 32.0 °F 37% 30.31 in 10.0 mi Calm Calm - N/A   Clear
2:33 AM 56.1 °F 32.0 °F 40% 30.31 in 10.0 mi Calm Calm - N/A   Clear
3:13 AM 56.3 °F 32.0 °F 40% 30.30 in 10.0 mi Calm Calm - N/A   Clear
3:33 AM 56.1 °F 32.0 °F 40% 30.30 in 10.0 mi Calm Calm - N/A   Clear
3:53 AM 52.7 °F 32.4 °F 46% 30.29 in 10.0 mi WNW 3.5 mph - N/A   Clear
4:13 AM 53.4 °F 32.0 °F 44% 30.29 in 10.0 mi North 4.6 mph - N/A   Clear
4:33 AM 54.0 °F 32.2 °F 44% 30.28 in 10.0 mi NNW 3.5 mph - N/A   Clear
4:53 AM 51.8 °F 32.5 °F 48% 30.28 in 10.0 mi Calm Calm - N/A   Clear
5:13 AM 52.0 °F 32.7 °F 48% 30.28 in 10.0 mi North 5.8 mph - N/A   Clear
5:33 AM 51.3 °F 32.9 °F 50% 30.28 in 10.0 mi North 6.9 mph - N/A   Clear
5:53 AM 50.2 °F 32.7 °F 51% 30.28 in 10.0 mi North 5.8 mph - N/A   Clear
6:13 AM 50.0 °F 33.4 °F 53% 30.28 in 10.0 mi North 6.9 mph - N/A   Clear
6:33 AM 50.5 °F 34.0 °F 53% 30.28 in 10.0 mi Calm Calm - N/A   Clear
6:53 AM 51.3 °F 34.0 °F 52% 30.28 in 10.0 mi NNW 3.5 mph - N/A   Clear
7:13 AM 54.7 °F 34.7 °F 47% 30.28 in 10.0 mi Calm Calm - N/A   Clear
7:33 AM 60.1 °F 34.0 °F 38% 30.28 in 10.0 mi Calm Calm - N/A   Clear
7:53 AM 63.9 °F 31.6 °F 30% 30.28 in 10.0 mi WNW 5.8 mph - N/A   Clear
8:13 AM 66.0 °F 31.8 °F 28% 30.28 in 10.0 mi West 3.5 mph - N/A   Clear
8:33 AM 68.9 °F 30.7 °F 24% 30.28 in 10.0 mi South 3.5 mph - N/A   Clear
8:53 AM 71.1 °F 30.6 °F 22% 30.28 in 10.0 mi SSE 3.5 mph - N/A   Clear
9:13 AM 72.7 °F 29.8 °F 21% 30.28 in 10.0 mi South 3.5 mph - N/A   Clear
9:33 AM 74.7 °F 29.8 °F 19% 30.29 in 10.0 mi SSE 5.8 mph - N/A   Clear
9:53 AM 76.5 °F 29.8 °F 18% 30.29 in 10.0 mi South 6.9 mph - N/A   Clear
10:13 AM 77.4 °F 30.2 °F 18% 30.30 in 10.0 mi ENE 3.5 mph - N/A   Clear
10:33 AM 78.8 °F 30.2 °F 17% 30.30 in 10.0 mi SSW 6.9 mph - N/A   Clear
11:13 AM 82.6 °F 30.4 °F 15% 30.29 in 10.0 mi SE 5.8 mph - N/A   Clear
11:33 AM 84.2 °F 31.1 °F 15% 30.29 in 10.0 mi SSE 9.2 mph - N/A   Clear
11:53 AM 85.1 °F 31.3 °F 14% 30.28 in 10.0 mi SSE 8.1 mph 18.4 mph N/A   Clear
12:13 PM 86.2 °F 31.5 °F 14% 30.27 in 10.0 mi SSE 6.9 mph 21.9 mph N/A   Clear
12:33 PM 83.3 °F 30.9 °F 15% 30.27 in 10.0 mi South 10.4 mph 16.1 mph N/A   Clear
12:53 PM 84.6 °F 31.3 °F 15% 30.26 in 10.0 mi South 12.7 mph 20.7 mph N/A   Clear
1:13 PM 84.6 °F 31.1 °F 15% 30.25 in 10.0 mi SSE 15.0 mph 20.7 mph N/A   Clear
1:33 PM 83.8 °F 31.3 °F 15% 30.25 in 10.0 mi SSE 11.5 mph 23.0 mph N/A   Clear
1:53 PM 85.6 °F 31.1 °F 14% 30.25 in 10.0 mi South 12.7 mph 20.7 mph N/A   Clear
2:13 PM 85.1 °F 31.5 °F 15% 30.24 in 10.0 mi South 13.8 mph 21.9 mph N/A   Clear
2:33 PM 84.7 °F 31.6 °F 15% 30.24 in 10.0 mi South 13.8 mph 21.9 mph N/A   Scattered Clouds
2:53 PM 85.5 °F 32.0 °F 15% 30.23 in 10.0 mi South 12.7 mph 21.9 mph N/A   Clear
3:13 PM 88.2 °F 32.0 °F 13% 30.22 in 10.0 mi SSE 13.8 mph 19.6 mph N/A   Clear
3:33 PM 87.4 °F 31.8 °F 14% 30.22 in 10.0 mi SSW 13.8 mph 21.9 mph N/A   Clear
3:53 PM 86.0 °F 31.3 °F 14% 30.22 in 10.0 mi SW 11.5 mph 21.9 mph N/A   Clear
4:13 PM 84.4 °F 31.5 °F 15% 30.21 in 10.0 mi SW 10.4 mph - N/A   Clear
4:33 PM 85.8 °F 31.8 °F 14% 30.21 in 10.0 mi South 6.9 mph - N/A   Clear
5:13 PM 84.2 °F 31.1 °F 15% 30.21 in 10.0 mi South 8.1 mph - N/A   Clear
5:33 PM 85.5 °F 32.4 °F 15% 30.22 in 10.0 mi WNW 12.7 mph 18.4 mph N/A   Scattered Clouds
5:53 PM 80.6 °F 35.8 °F 20% 30.21 in 10.0 mi NW 16.1 mph 24.2 mph N/A   Mostly Cloudy
6:13 PM 80.6 °F 35.1 °F 19% 30.21 in 10.0 mi WNW 10.4 mph 20.7 mph N/A   Clear
6:33 PM 80.6 °F 35.2 °F 20% 30.21 in 10.0 mi NNW 3.5 mph 18.4 mph N/A   Scattered Clouds
6:53 PM 80.4 °F 34.9 °F 19% 30.22 in 10.0 mi West 3.5 mph - N/A   Clear
7:13 PM 78.3 °F 35.4 °F 21% 30.21 in 10.0 mi Calm Calm - N/A   Scattered Clouds
7:33 PM 77.0 °F 35.8 °F 22% 30.21 in 10.0 mi Calm Calm - N/A   Scattered Clouds
7:53 PM 73.8 °F 37.4 °F 27% 30.22 in 10.0 mi NNW 3.5 mph - N/A   Clear
8:13 PM 71.6 °F 37.9 °F 29% 30.22 in 10.0 mi North 8.1 mph - N/A   Clear
8:33 PM 70.9 °F 39.0 °F 31% 30.23 in 10.0 mi NNE 12.7 mph - N/A   Clear
8:53 PM 71.6 °F 39.4 °F 31% 30.23 in 10.0 mi North 12.7 mph - N/A   Clear
9:13 PM 71.1 °F 39.6 °F 32% 30.23 in 10.0 mi North 12.7 mph - N/A   Clear
9:33 PM 71.4 °F 39.6 °F 31% 30.24 in 10.0 mi North 6.9 mph - N/A   Mostly Cloudy
9:53 PM 72.5 °F 39.0 °F 30% 30.23 in 10.0 mi North 10.4 mph - N/A   Mostly Cloudy
10:13 PM 72.0 °F 38.1 °F 29% 30.23 in 10.0 mi NNE 12.7 mph - N/A   Scattered Clouds
10:33 PM 68.5 °F 37.8 °F 32% 30.23 in 10.0 mi NNE 12.7 mph - N/A   Scattered Clouds
10:53 PM 70.0 °F 37.8 °F 31% 30.22 in 10.0 mi North 13.8 mph - N/A   Mostly Cloudy
11:13 PM 69.8 °F 37.4 °F 31% 30.22 in 10.0 mi North 12.7 mph - N/A   Scattered Clouds
11:33 PM 68.5 °F 37.2 °F 32% 30.22 in 10.0 mi North 11.5 mph - N/A   Clear
11:53 PM 68.2 °F 37.8 °F 33% 30.22 in 10.0 mi North 10.4 mph - N/A   Scattered Clouds